Location: Galaxy Quest Observatory
(44.3404°N, 69.0569°W)
Time: 09:51:23
(UTC-04:00)

Envisat - Visible Passes

Search period start: 02 April 2020 00:00
Search period end: 12 April 2020 00:00
Orbit: 764 x 766 km, 98.1° (Epoch: 02 April)

Date Brightness Start Highest point End Pass type
(mag) Time Alt. Az. Time Alt. Az. Time Alt. Az.
02 Apr 6.2 19:47:16 10° WSW 19:49:39 13° W 19:52:02 10° WNW visible
04 Apr 6.7 05:38:31 10° ENE 05:39:44 11° E 05:40:55 10° E visible
05 Apr 6.0 19:34:58 10° SW 19:38:11 17° W 19:41:26 10° NW visible
10 Apr 6.3 19:50:37 10° WSW 19:52:33 12° W 19:54:28 10° WNW visible
